Theta_e
328 327 327 327 327 327 328 328 328 328 328 328 329 329 329 329 329 329 329 329 329 329 329 328 329 329 328 328 327 327 326 326 326 327 327 327 327 327 327 327 328 327 326 325 324 322 319 313 304 297 297 297 297 298 300 306 307 304 302 304 306 307 310 325 331 333 333 333 333 333 333 332 332 332 332 331 331 331 330 330 330 330 330 330 330 331 331 330 330 330 330 330 330 330 330 330 331 331 331 331 331 331 331
327 327 327 327 327 328 328 328 328 328 328 329 329 329 329 329 329 329 329 329 328 328 328 328 329 329 328 328 327 326 326 326 326 326 327 327 327 327 326 327 327 327 326 325 324 322 319 311 302 297 298 297 297 297 300 303 303 302 301 303 305 308 313 326 331 332 333 333 333 333 332 332 332 332 331 331 330 330 330 330 330 330 330 330 330 331 331 331 330 330 330 330 330 330 330 330 330 330 330 331 331 331 331
327 327 327 327 328 328 328 328 329 329 329 329 329 329 329 329 329 329 329 328 328 328 328 328 328 328 327 327 327 327 326 326 326 326 326 326 326 326 326 327 327 327 326 325 324 322 320 315 305 297 298 297 297 297 300 304 303 301 301 303 305 309 317 327 331 332 332 332 332 332 332 332 331 331 330 330 329 329 329 329 329 329 329 330 330 330 330 331 330 330 330 330 330 330 330 330 330 329 329 329 330 330 331
327 327 328 328 328 328 328 328 328 328 328 328 329 329 329 329 329 329 328 328 328 328 328 328 327 327 327 327 327 327 327 326 326 327 327 326 326 326 326 326 327 327 326 325 323 322 321 319 310 301 297 297 297 298 300 305 306 304 301 303 305 311 325 329 330 331 332 332 332 331 331 331 331 330 329 329 329 329 328 328 328 329 329 329 329 329 329 330 330 330 330 330 330 330 330 330 330 330 329 329 329 329 330
327 328 328 328 328 328 328 328 328 328 328 328 329 329 329 329 329 328 328 328 328 328 327 327 327 327 326 327 327 327 327 327 327 326 326 326 326 326 325 326 326 327 327 325 323 320 314 315 309 302 297 298 299 299 299 305 307 306 301 301 305 314 327 328 329 330 330 331 331 331 330 330 329 329 329 328 328 328 328 328 328 328 328 328 328 328 329 329 329 329 329 329 329 330 330 329 329 329 329 329 329 329 329
328 328 328 328 328 328 327 327 328 328 328 328 329 329 329 329 329 328 328 328 327 327 326 326 326 325 326 326 326 326 326 326 326 326 326 326 326 325 325 326 326 327 327 325 323 318 311 306 302 299 298 298 300 300 300 304 304 301 299 300 307 319 328 328 329 329 330 330 330 330 330 329 329 329 328 327 327 327 327 328 328 327 327 327 327 327 327 327 328 328 328 329 329 329 329 329 329 329 329 329 329 329 329
328 328 328 328 328 328 328 328 328 328 328 328 328 329 329 329 329 328 328 328 327 326 326 325 325 325 325 325 326 326 326 326 326 326 326 326 326 325 325 325 325 326 326 326 323 319 310 302 300 299 298 297 297 297 298 302 303 302 300 301 312 324 327 327 327 328 328 329 329 329 329 329 329 328 327 327 327 327 327 328 328 327 327 327 327 327 327 327 327 327 327 328 328 329 329 329 329 329 329 329 329 329 329
328 328 328 328 328 328 328 328 328 328 328 328 328 329 329 329 328 328 328 327 327 326 326 325 325 325 325 325 325 325 326 326 326 326 326 326 326 325 325 325 325 326 326 326 325 321 315 305 301 299 298 297 298 299 300 300 300 300 299 303 313 323 327 327 327 327 328 328 328 329 329 328 328 327 327 327 327 327 327 327 327 327 326 327 327 327 327 327 327 328 328 328 328 328 328 328 328 328 328 329 329 329 329
329 329 329 329 328 328 328 328 328 328 328 328 328 328 329 328 328 327 327 327 327 326 326 325 325 325 325 325 325 325 325 326 326 326 326 326 325 325 325 325 325 326 326 326 325 322 318 308 302 299 297 296 299 303 305 300 299 298 298 304 313 322 326 327 326 326 326 327 328 328 328 328 327 327 327 326 326 327 326 326 326 326 326 326 326 327 327 327 328 328 328 328 328 328 328 328 328 328 329 329 329 329 330
329 329 329 329 328 328 328 328 328 328 328 328 328 328 329 328 328 327 327 326 326 326 326 325 325 325 325 324 324 324 325 325 325 326 326 326 325 325 324 325 325 325 326 326 325 323 319 308 302 298 297 296 299 303 306 300 300 301 299 308 318 325 327 327 326 326 326 326 327 327 327 327 327 326 326 326 326 326 326 326 325 325 325 326 326 326 327 327 328 328 328 328 328 328 328 328 328 329 329 329 330 330 331
329 329 329 328 328 328 328 327 327 327 327 328 328 329 329 328 327 327 326 326 326 326 326 325 325 325 325 325 325 325 325 325 326 326 326 326 326 325 325 325 325 325 326 326 325 322 318 307 301 298 298 299 301 302 299 298 300 302 301 310 318 326 327 326 326 326 325 326 326 327 327 327 326 325 325 325 325 325 325 325 324 325 325 325 326 326 327 327 327 327 327 327 328 328 328 328 328 328 328 329 330 330 331
329 329 329 328 328 328 328 327 327 327 327 327 328 329 328 328 327 326 326 326 326 326 325 325 325 325 325 325 326 326 326 326 326 326 326 326 326 326 326 325 325 326 326 325 324 320 315 305 300 298 296 298 299 299 298 297 297 297 298 312 320 324 326 326 326 326 325 325 326 326 325 325 325 325 325 325 325 325 325 324 324 324 324 325 326 326 327 327 327 326 326 326 326 327 327 327 327 328 328 328 329 329 329
329 329 329 328 328 328 328 328 327 327 327 327 328 328 328 327 327 326 326 326 326 326 325 325 325 325 325 326 326 326 326 327 327 327 327 327 327 326 326 326 326 326 325 324 321 316 310 302 299 298 297 298 297 296 299 300 299 298 302 317 324 325 325 325 326 326 325 324 324 324 325 325 325 325 325 325 325 324 324 324 324 324 324 324 325 326 326 326 326 326 326 326 326 326 326 326 326 327 327 328 328 328 328
329 329 328 328 328 328 328 328 328 328 327 327 328 328 327 327 327 326 326 326 326 326 325 325 325 325 325 325 326 326 326 327 327 328 328 328 328 327 327 327 327 326 325 321 313 306 303 300 299 299 298 297 296 298 305 304 300 300 310 321 325 325 325 325 325 325 324 324 324 323 324 324 324 324 324 324 324 324 324 324 324 324 324 324 325 325 325 325 325 325 325 325 325 325 326 326 326 326 326 326 327 327 327
329 328 329 329 329 328 328 328 328 328 328 328 327 327 327 327 327 327 327 326 326 326 326 325 325 325 325 326 326 326 326 327 327 327 327 327 327 327 326 326 326 326 324 314 305 300 300 299 299 299 299 297 297 298 303 302 300 303 318 322 324 325 324 324 324 324 324 323 323 323 323 323 323 323 323 323 323 323 324 324 324 324 324 324 324 325 325 325 325 325 325 325 325 325 325 325 326 326 326 326 326 327 327
329 329 329 329 329 328 328 328 328 328 328 328 328 327 327 327 327 327 327 327 326 326 326 326 325 325 326 326 326 326 324 325 325 325 325 325 325 325 325 325 325 323 318 307 301 300 300 299 299 299 302 298 297 298 300 300 302 309 321 323 324 324 323 324 324 324 324 323 323 322 322 322 323 323 323 323 323 323 324 324 324 324 324 324 325 325 325 325 325 325 325 325 325 325 325 325 325 325 325 325 326 326 326
329 329 329 330 330 329 329 329 329 328 328 328 328 328 327 327 327 327 327 327 327 327 326 326 326 326 327 326 325 322 315 316 318 320 322 323 322 323 323 323 321 316 308 303 300 299 299 299 299 300 301 298 298 299 302 299 305 315 323 323 323 323 323 323 323 323 323 323 322 321 321 322 323 323 323 323 323 323 324 324 324 325 325 325 325 325 325 325 324 324 324 324 324 324 324 324 325 325 325 325 325 325 325
329 329 330 330 330 330 330 330 329 329 329 328 328 327 327 327 327 327 327 327 327 327 327 327 327 328 328 326 322 316 307 307 309 311 314 317 318 319 319 318 314 308 302 301 300 298 297 297 298 299 301 300 299 299 304 302 308 318 323 323 322 322 322 322 323 323 323 322 322 321 321 322 322 323 322 323 323 323 324 324 325 325 325 325 325 324 324 323 323 323 323 323 323 323 323 323 323 324 324 324 324 325 325
329 330 330 330 330 330 330 331 330 330 329 329 328 328 327 327 327 327 327 328 328 328 328 328 328 328 328 324 317 310 305 304 305 306 306 308 311 313 314 311 307 303 301 300 299 297 296 296 297 299 299 299 299 299 304 304 310 318 323 322 322 321 321 321 322 322 322 322 321 321 321 321 322 322 323 323 323 324 324 324 324 324 324 324 324 323 323 322 322 322 322 322 322 322 322 323 323 323 323 323 323 324 324
326 327 329 329 329 330 330 330 330 330 329 329 328 328 327 327 326 327 328 328 328 328 329 328 327 325 325 318 311 306 304 304 305 305 304 302 303 304 305 304 302 300 300 298 297 297 296 296 297 299 297 297 298 299 302 304 312 320 323 322 321 321 320 321 321 321 321 321 321 321 321 321 322 322 323 323 323 324 324 324 324 324 324 323 323 323 322 322 322 322 321 321 321 321 322 322 322 322 323 323 323 323 324
318 319 322 324 325 326 325 324 324 324 325 327 325 321 319 322 324 325 327 325 325 326 327 325 320 315 314 312 308 305 303 303 303 304 304 300 299 299 300 300 300 299 298 296 296 296 296 295 296 296 295 296 297 298 301 307 315 321 322 321 320 320 320 320 320 321 321 321 320 320 320 321 322 322 322 322 323 323 323 324 323 323 323 323 322 322 322 321 321 321 321 321 321 321 321 321 321 321 322 322 322 322 322
313 313 315 315 316 317 317 314 314 316 317 323 319 312 310 314 316 318 322 317 316 318 318 316 312 308 308 308 306 305 303 303 303 302 302 299 298 298 299 299 298 298 296 295 295 295 295 295 295 295 295 296 296 297 300 312 319 321 320 319 319 319 319 319 320 320 320 320 320 320 320 321 321 322 322 322 322 322 322 322 322 322 322 322 322 322 321 321 320 320 320 320 320 320 320 320 320 321 321 321 321 321 322
312 313 312 312 312 312 312 311 311 312 313 319 316 310 308 309 310 312 313 310 309 309 309 309 308 306 306 304 304 303 301 302 302 302 300 299 298 297 297 296 296 296 295 294 294 294 294 295 295 295 295 295 295 297 300 313 319 320 319 318 318 319 319 319 319 319 319 319 319 319 320 321 321 321 321 321 321 321 321 321 322 322 322 321 321 321 321 320 320 320 320 319 319 319 319 320 320 320 320 320 320 321 321
311 313 312 312 312 311 311 311 311 312 311 314 313 311 310 308 307 307 308 308 307 307 307 307 305 304 302 301 300 299 298 299 301 301 299 298 297 296 296 295 294 294 294 293 293 293 294 294 295 295 295 294 294 296 299 312 318 319 319 318 319 319 319 319 318 319 319 319 319 320 320 321 321 321 320 320 320 320 320 321 321 321 321 321 321 321 320 320 320 319 319 319 319 319 319 319 319 319 320 320 320 320 321
311 313 312 313 312 312 310 311 311 311 310 310 310 311 311 308 306 305 306 308 307 306 306 305 303 301 298 298 297 296 296 296 297 296 295 296 296 295 295 294 293 293 293 292 292 293 293 293 294 294 294 293 293 295 300 312 317 318 318 318 318 318 318 318 318 318 318 319 319 320 321 321 321 320 320 319 319 320 320 320 321 321 321 321 320 320 320 319 319 319 319 318 318 318 318 319 319 319 319 320 320 320 320
311 313 313 312 312 312 311 311 311 311 310 309 309 310 310 308 306 305 305 307 306 305 305 301 299 297 296 296 296 296 296 296 295 295 294 294 294 294 294 293 292 292 291 292 292 292 293 292 292 292 292 292 292 293 297 309 315 317 318 318 318 318 318 317 317 317 318 318 319 320 321 321 320 320 319 319 319 320 320 320 321 321 321 320 320 320 319 319 319 319 318 318 318 318 318 319 319 319 320 320 320 320 320
311 313 312 311 311 311 311 311 311 311 311 309 309 310 310 309 307 306 306 305 304 303 302 299 297 296 296 296 296 296 295 296 296 296 295 294 293 293 294 293 292 292 291 291 291 291 292 291 290 290 290 290 291 292 293 304 311 315 318 318 318 317 317 316 316 316 317 318 320 321 321 320 320 320 319 319 320 320 320 320 321 321 320 320 320 319 319 319 319 318 318 318 318 319 319 319 319 319 320 320 320 320 320
311 312 312 311 311 312 312 311 311 311 311 309 309 309 311 311 309 307 306 305 303 303 304 300 298 297 297 297 296 296 296 296 296 295 294 293 293 292 293 293 292 291 291 291 291 291 290 290 289 289 289 289 290 291 292 298 306 313 317 318 317 317 316 316 316 316 317 318 319 320 320 319 319 319 319 319 320 320 320 320 320 321 320 320 319 319 319 319 318 318 318 319 319 319 319 319 319 320 320 320 320 320 320
311 312 312 311 312 312 313 312 311 311 310 310 310 310 310 311 310 308 306 304 302 301 302 300 298 298 297 297 298 297 297 296 295 294 293 293 292 291 292 292 292 291 290 290 291 291 290 290 289 289 288 289 290 291 291 295 304 313 317 318 317 317 316 315 315 315 316 317 318 319 319 319 319 319 319 319 320 320 320 320 320 320 320 320 320 319 319 319 318 318 319 319 319 319 319 320 320 320 320 320 320 320 320
312 312 312 311 311 312 312 312 312 311 310 310 310 310 309 309 309 308 307 305 302 300 299 298 297 297 297 297 298 298 300 299 297 294 293 292 291 291 291 291 291 291 290 290 290 290 290 290 290 289 290 289 289 289 290 292 300 310 315 317 317 316 316 315 315 315 315 316 317 317 317 318 318 318 319 319 320 320 320 320 320 320 320 320 320 319 319 318 319 319 319 319 319 320 319 319 319 319 319 319 319 319 319
312 311 311 311 311 311 312 312 313 312 310 310 310 311 310 308 307 307 306 305 303 301 299 299 298 298 297 297 297 297 299 299 296 294 293 292 291 290 291 291 291 291 290 290 290 290 290 290 289 289 290 289 289 289 289 291 296 304 314 316 317 316 315 315 314 314 314 315 315 316 316 317 317 318 318 318 319 319 319 320 320 320 320 320 319 319 318 318 318 318 319 319 319 319 319 319 319 319 319 319 319 318 318
312 311 310 310 310 311 311 312 312 311 310 310 310 310 310 308 307 306 303 304 303 302 301 300 300 299 298 298 297 296 297 297 296 294 293 292 291 291 292 291 290 290 290 289 290 290 290 289 289 288 288 288 288 289 289 290 291 295 308 315 317 316 315 314 314 314 313 313 314 315 316 316 317 317 317 318 318 318 318 319 319 319 319 319 319 318 318 318 318 318 318 318 318 318 318 318 318 318 318 318 318 318 318
312 311 310 310 311 311 311 311 311 311 310 311 311 311 309 308 307 304 302 301 300 299 298 298 298 297 296 297 296 294 293 293 293 294 293 292 292 290 289 289 289 290 289 289 289 289 289 289 288 288 287 287 288 288 288 288 288 291 301 313 317 315 315 314 314 313 313 313 313 314 315 316 316 317 317 317 317 317 317 318 318 318 318 318 318 318 318 317 317 317 317 317 317 317 317 317 318 318 318 318 318 318 318
312 311 310 310 310 311 310 310 312 312 312 313 313 312 309 306 303 300 299 297 295 293 293 294 294 294 294 295 294 293 292 291 292 294 294 293 292 290 289 289 289 289 288 289 289 289 288 288 288 288 287 287 287 287 288 288 288 290 293 308 315 315 315 314 313 313 312 312 312 313 314 315 315 316 316 316 316 316 316 316 317 317 317 318 317 317 317 317 317 316 317 316 316 317 316 317 317 317 317 318 318 318 318
312 312 310 310 310 310 309 310 312 313 313 314 313 311 308 304 300 298 296 295 294 293 292 292 292 292 292 292 293 292 292 290 290 291 292 292 291 290 289 289 289 289 288 288 288 287 287 287 288 288 287 288 288 288 288 288 289 290 292 304 312 314 314 313 313 312 312 312 312 312 313 314 314 315 315 315 315 316 316 315 315 316 316 317 317 317 317 316 316 316 316 316 316 316 316 316 317 317 317 317 317 317 317
313 312 311 310 310 310 311 312 312 313 313 313 311 309 306 303 301 299 298 298 297 296 294 293 293 292 292 292 292 293 293 292 291 291 291 291 291 290 289 289 288 288 289 289 288 287 287 288 288 288 288 288 288 288 288 288 288 289 291 295 302 309 312 311 311 312 312 312 312 312 312 312 313 314 314 315 314 315 315 315 315 315 315 316 316 316 316 316 316 315 315 315 316 315 316 316 316 316 317 317 317 317 317
312 311 310 310 310 310 311 311 311 311 311 310 309 307 305 304 302 301 299 298 296 296 296 296 297 297 295 294 294 294 293 292 292 293 292 291 291 290 289 289 289 288 290 290 289 289 288 288 288 288 288 287 287 287 287 288 288 288 289 291 295 299 302 302 305 309 313 313 312 312 311 312 312 313 314 314 314 314 314 314 314 314 314 315 315 315 315 315 315 315 315 315 315 315 315 316 316 316 316 317 316 316 316
312 312 310 310 310 310 311 311 310 308 308 307 306 306 305 304 302 300 299 297 296 296 296 295 296 296 295 293 293 293 293 291 292 292 292 291 291 291 291 291 290 289 290 289 289 289 288 288 288 287 287 287 287 287 287 288 288 287 288 290 292 294 295 296 298 302 308 312 313 312 311 312 312 312 313 313 313 313 313 313 313 313 313 314 314 314 314 314 314 314 314 314 315 315 315 315 316 316 316 316 316 316 316
312 312 312 310 310 310 312 311 308 306 306 306 305 304 304 303 301 299 298 297 296 296 295 294 294 293 293 292 292 292 293 291 291 291 291 290 291 291 291 292 291 290 290 290 290 289 289 288 287 287 287 287 287 287 287 288 288 287 287 289 291 293 294 293 295 297 298 304 309 312 313 313 312 312 312 312 312 312 312 312 312 312 312 312 313 314 314 314 314 313 314 314 314 314 315 315 315 315 316 315 315 315 315
313 313 312 312 311 311 311 309 307 305 306 306 304 303 302 303 301 299 298 297 296 295 294 294 294 294 293 293 292 291 291 290 290 290 290 289 290 291 290 291 291 290 290 292 291 290 289 288 287 287 288 287 287 287 288 288 288 288 287 288 289 290 292 294 296 297 294 296 299 304 311 313 313 313 313 312 312 312 312 312 311 311 311 312 312 313 313 313 313 313 313 313 314 314 314 315 315 315 315 315 315 315 315
313 313 313 313 312 311 310 308 306 306 306 306 304 302 302 302 301 300 298 296 295 294 292 293 295 296 295 294 293 291 291 290 289 289 289 289 289 289 289 290 290 290 290 292 292 290 289 288 288 288 289 287 287 288 289 289 289 288 288 288 288 289 293 297 299 298 294 294 294 297 304 310 312 313 313 313 313 312 312 311 311 310 311 311 311 311 312 312 312 312 312 312 313 314 314 314 314 314 315 315 315 315 315
313 313 313 313 312 310 308 306 306 306 307 305 303 302 301 301 300 299 297 296 295 293 292 292 293 294 295 294 293 292 292 291 290 289 289 289 289 288 288 289 290 289 290 291 291 290 289 289 290 290 290 288 288 289 289 290 290 289 289 289 289 291 296 298 297 294 293 293 293 294 296 304 309 311 312 313 313 313 312 311 311 311 310 310 311 311 311 311 311 311 311 311 312 313 313 313 314 314 314 314 314 314 314
314 313 313 312 311 309 307 306 305 306 306 304 302 301 300 299 297 296 295 295 295 294 293 291 290 291 293 293 293 292 292 292 291 289 288 289 289 288 288 289 289 289 289 289 289 289 289 290 292 295 294 291 290 290 290 291 291 291 290 290 291 292 294 294 292 291 291 292 292 292 291 297 303 307 309 310 311 311 311 311 311 311 310 310 310 310 310 310 310 310 310 311 311 312 312 313 313 313 313 314 314 314 314
314 313 312 312 310 308 305 305 305 305 305 303 301 299 298 296 294 293 293 294 295 295 293 291 290 290 291 293 293 292 292 292 291 290 288 288 289 289 289 289 289 289 288 289 289 290 290 291 294 297 295 293 291 291 291 292 293 292 290 290 291 291 291 291 291 291 291 291 291 291 291 292 296 301 304 306 307 308 307 308 309 310 311 311 310 310 309 309 309 309 309 310 311 311 312 312 312 312 313 313 313 314 314
313 313 311 311 309 306 304 304 304 304 303 302 300 298 296 294 293 293 292 291 293 294 294 291 290 289 289 291 292 292 291 291 291 290 288 289 289 289 290 290 289 289 287 289 290 291 291 293 294 293 292 292 291 291 292 295 295 293 290 290 290 291 291 291 291 291 291 290 290 290 291 291 291 293 295 298 299 300 302 305 307 309 310 310 310 310 309 309 308 308 308 309 310 311 311 311 311 312 312 312 313 313 314
313 311 310 309 308 306 304 303 304 304 302 300 299 297 295 294 294 294 293 292 291 292 293 291 290 289 290 290 290 290 289 288 290 291 291 289 289 290 292 290 289 288 287 289 291 292 292 293 292 290 291 291 291 291 292 296 296 293 290 289 289 289 290 290 290 290 290 290 290 290 290 290 290 290 290 292 292 293 297 301 305 307 309 309 309 309 309 308 308 307 308 308 309 310 310 310 311 311 311 311 312 312 313
313 311 311 309 307 305 303 302 303 304 302 300 299 297 296 295 295 294 294 293 292 292 292 291 291 291 292 293 290 287 287 287 288 290 291 288 288 290 294 291 288 287 287 288 290 292 291 290 289 289 289 290 290 289 290 292 292 291 290 290 289 288 288 289 288 288 288 288 289 289 289 289 289 289 290 291 291 291 292 296 300 304 306 307 308 308 308 308 308 307 307 308 308 309 309 310 310 310 311 311 311 312 312
313 312 312 309 307 305 302 302 303 304 303 302 300 299 298 297 295 294 292 293 293 293 295 294 292 291 292 292 290 288 287 287 288 288 289 288 287 287 289 288 287 287 287 287 290 292 291 287 287 287 287 288 287 287 288 289 289 289 290 290 289 287 287 287 287 286 286 287 287 288 287 287 287 287 289 290 290 289 289 290 294 300 303 304 305 306 306 307 307 307 307 307 308 308 309 309 309 310 310 310 311 311 312
315 313 310 308 307 305 303 301 303 304 303 304 303 302 298 295 294 293 292 292 291 291 292 295 295 293 292 292 291 289 288 287 287 288 289 288 288 287 286 286 286 287 288 287 290 292 291 287 286 286 286 286 286 287 287 287 287 287 288 288 288 287 287 287 287 286 285 286 286 287 286 286 286 286 287 288 288 288 288 289 290 292 297 300 302 303 304 304 305 306 307 307 307 308 308 309 309 309 309 310 310 311 311
314 313 310 308 307 306 305 302 302 303 303 303 302 300 295 294 294 295 294 291 289 289 291 292 293 293 293 293 292 291 289 287 287 288 290 287 286 286 287 286 286 287 288 289 290 291 289 287 286 285 285 285 286 286 286 286 286 286 286 286 286 286 286 286 286 285 285 285 285 285 286 286 286 286 288 288 288 287 287 287 287 288 291 292 294 297 299 301 303 305 306 307 307 307 308 308 308 309 309 309 310 310 311
314 312 309 309 307 306 306 303 303 303 301 304 302 298 297 296 296 295 291 290 290 291 294 293 292 291 293 292 291 290 289 287 287 288 290 287 285 284 285 285 287 289 290 290 291 293 291 289 287 285 285 285 285 285 284 285 285 285 285 285 285 285 285 286 286 285 284 285 285 285 285 285 286 286 286 286 286 286 285 286 286 286 287 286 288 290 292 295 300 304 305 306 307 307 307 307 308 308 308 309 309 310 311
314 313 310 309 308 307 306 304 303 304 305 303 299 295 294 294 294 293 291 292 292 292 294 295 293 291 289 290 290 288 287 287 287 288 290 286 283 282 282 286 287 287 287 290 292 294 293 291 289 287 285 284 284 284 283 284 285 286 285 284 284 285 285 286 286 285 285 285 285 285 285 285 285 285 285 285 285 285 284 285 285 285 285 286 288 290 291 295 299 302 304 305 306 306 306 307 307 308 308 308 309 309 310
313 312 311 310 309 307 306 305 303 303 306 303 299 296 294 294 294 293 292 293 293 293 293 294 293 292 290 290 290 289 290 289 288 288 290 286 283 282 283 286 285 284 281 285 288 290 291 290 290 289 286 285 284 284 282 283 285 286 287 284 284 284 284 285 285 285 285 285 285 285 285 285 285 284 284 284 284 284 284 284 284 285 285 284 286 287 287 292 298 301 303 303 304 305 306 306 306 307 307 308 308 309 310
313 312 310 310 309 308 306 305 304 302 303 304 302 300 297 295 294 294 293 294 294 294 295 295 294 292 292 291 290 289 290 291 288 286 286 285 286 286 286 283 281 280 279 283 285 287 288 286 286 287 288 284 284 283 283 284 284 284 286 285 285 284 284 285 284 284 284 285 285 285 285 284 284 284 284 284 284 284 284 284 284 284 284 284 284 285 285 291 296 300 300 301 302 303 304 306 306 307 307 307 308 309 309
312 311 311 310 310 308 307 305 304 304 302 302 303 302 299 297 297 297 296 296 295 294 294 295 294 293 293 291 290 289 288 290 289 287 286 285 287 288 287 284 282 281 279 281 283 285 288 283 282 283 285 284 284 285 285 284 284 285 289 288 286 284 284 284 284 284 284 284 284 284 283 284 284 283 283 283 283 283 283 283 283 283 283 283 285 287 290 293 295 295 295 296 299 301 304 306 307 307 306 307 308 308 309
312 311 311 310 309 308 307 306 305 304 302 302 303 303 302 301 300 299 297 296 295 294 295 295 293 292 293 292 290 289 288 287 287 287 286 286 288 289 289 288 286 285 286 284 283 283 284 280 282 286 288 285 285 286 286 285 284 285 289 287 285 283 284 284 284 283 283 283 282 282 282 284 284 283 282 282 282 282 282 282 282 282 282 283 284 285 286 287 287 288 291 292 295 299 303 306 307 307 307 307 308 308 309
312 311 310 310 309 308 307 306 305 304 303 302 303 304 303 302 300 298 297 295 294 294 295 296 294 291 290 291 291 290 289 289 291 292 289 287 287 287 285 287 288 289 290 287 285 283 280 280 284 287 287 286 286 287 286 285 284 283 285 284 283 283 284 283 283 282 282 282 282 282 282 285 284 282 282 281 282 282 281 281 281 282 282 282 282 283 283 284 286 288 289 292 293 296 303 306 307 307 307 307 307 308 309
313 311 310 309 308 308 307 306 306 305 305 305 304 303 302 301 299 298 298 296 296 296 295 296 295 292 289 289 290 291 290 290 290 290 290 288 286 285 284 284 284 286 290 289 288 285 281 282 283 285 284 285 286 285 284 284 283 283 283 283 283 283 282 281 281 281 281 281 282 282 282 284 283 282 282 281 282 282 281 281 281 281 281 281 282 282 282 284 288 292 291 294 296 299 304 306 306 306 306 306 307 307 308
312 311 310 309 308 307 307 307 306 306 305 306 304 302 301 300 300 300 300 298 298 297 295 296 296 295 293 290 290 290 290 289 288 287 287 288 286 284 283 283 285 287 288 286 285 285 285 285 283 282 281 283 284 285 284 284 284 284 284 283 283 283 282 282 282 282 282 282 282 282 283 283 283 284 283 282 282 282 282 282 281 281 281 281 281 282 284 289 291 293 295 298 301 303 305 305 305 305 305 306 306 307 308
312 311 310 309 307 307 307 306 306 306 306 306 305 303 302 302 301 300 299 298 298 298 296 295 295 294 294 291 290 291 291 289 287 287 289 290 289 287 286 286 285 285 286 284 283 283 284 285 285 283 282 283 283 284 284 284 283 283 283 283 283 283 283 283 282 283 283 283 283 283 283 283 284 284 283 282 282 282 282 282 282 281 281 281 281 282 284 285 286 287 290 295 300 303 304 304 304 304 304 305 306 306 307
313 312 312 310 309 308 308 306 306 306 305 306 305 304 304 303 302 300 298 297 297 297 295 294 293 293 293 290 290 291 291 290 288 287 288 290 290 289 290 288 286 285 286 284 282 282 282 282 283 284 284 284 283 282 283 284 284 284 284 283 283 283 284 284 284 284 283 283 283 283 283 283 284 283 283 283 283 283 283 283 283 282 281 281 281 281 283 283 283 284 285 290 297 302 303 303 303 303 304 304 305 306 306
Wind_Speed
9 9 9 9 9 9 9 9 9 9 9 9 9 9 9 9 9 9 9 9 9 9 9 9 10 10 10 10 10 10 10 9 9 9 9 9 9 10 10 11 12 12 13 12 12 11 10 8 6 4 5 5 4 4 4 5 5 5 5 5 6 6 7 8 9 10 9 9 9 9 9 9 9 9 9 10 10 9 9 9 9 9 8 8 8 8 8 8 8 8 8 8 8 8 8 9 9 9 8 8 8 7 7
9 9 9 9 9 9 9 9 9 9 9 9 9 9 9 9 9 9 9 9 9 9 9 9 9 10 10 10 10 10 10 9 9 9 9 9 9 9 10 10 11 12 13 13 12 11 10 7 5 4 5 4 4 4 3 4 5 5 5 5 6 6 7 8 9 9 9 9 9 9 10 10 10 10 10 10 10 10 10 9 9 9 9 9 9 9 9 8 8 8 7 7 7 7 8 8 8 8 9 9 9 8 8
9 9 9 9 9 9 9 9 9 8 8 8 8 8 8 8 8 8 8 8 9 9 9 9 9 9 10 10 10 10 10 10 10 10 10 9 9 9 9 10 11 12 12 12 12 11 10 8 5 4 4 4 4 4 4 4 4 5 5 5 6 7 7 8 9 9 9 9 9 9 10 10 10 10 10 10 10 10 9 9 9 9 9 9 9 9 9 9 9 8 8 8 8 7 7 7 7 7 8 8 9 9 9
9 9 9 9 9 8 8 8 8 8 8 8 8 8 8 8 8 8 8 8 8 9 9 9 9 9 9 9 9 9 10 10 10 10 10 10 10 9 9 10 10 11 12 12 12 11 8 7 5 4 4 3 3 4 4 4 4 4 4 5 6 8 9 9 10 10 10 10 10 10 10 10 10 10 10 10 9 9 9 9 9 9 9 9 9 9 9 9 9 9 9 8 8 8 8 8 7 7 7 7 7 8 8
9 9 9 9 8 8 8 8 8 8 7 7 7 7 7 7 8 8 8 8 8 8 8 8 8 8 8 9 9 9 10 10 10 10 10 10 10 10 10 10 10 11 11 12 11 10 7 6 5 4 3 3 3 3 3 4 5 5 5 5 6 8 10 10 11 10 10 10 10 10 10 10 10 10 10 9 9 9 8 8 8 9 9 9 9 9 9 9 9 9 9 9 9 9 9 8 8 8 7 7 7 7 8
9 9 9 8 8 8 8 7 7 7 7 6 6 6 6 7 8 8 8 8 8 8 8 8 8 8 8 8 9 9 9 10 10 10 10 10 10 10 10 10 10 10 11 11 11 10 7 5 4 3 3 2 2 2 3 4 4 4 5 5 6 8 10 11 11 11 10 10 10 9 9 9 10 9 9 9 9 9 8 8 8 8 9 9 9 9 9 8 8 8 8 8 8 9 9 8 8 8 8 8 8 8 8
9 9 9 8 8 8 7 7 7 7 6 6 5 5 6 7 7 8 7 7 7 7 7 7 7 7 7 8 8 8 9 9 9 10 10 10 10 10 10 10 10 10 10 10 10 9 7 4 3 3 3 2 2 2 2 3 4 4 5 5 7 9 10 10 11 11 10 10 9 9 9 9 9 9 9 9 9 9 9 9 9 9 9 9 8 8 8 8 7 7 7 7 8 8 8 8 8 8 8 8 8 8 8
9 9 9 8 8 7 7 7 6 6 6 5 5 5 6 7 7 7 7 7 7 7 7 7 7 7 7 7 7 8 8 8 9 9 9 10 10 9 9 9 9 9 10 10 10 9 8 5 3 3 2 2 2 2 2 3 4 4 4 5 7 9 9 10 11 11 10 10 10 9 9 9 9 9 9 9 9 9 9 9 9 9 9 8 8 8 8 7 7 7 7 7 7 8 8 8 8 8 8 8 8 8 8
9 9 8 8 7 7 6 6 6 5 5 4 4 4 6 6 7 6 6 6 6 6 6 6 6 6 6 6 6 7 7 7 8 8 9 9 9 9 9 9 9 9 9 9 9 9 8 5 3 2 2 1 1 2 2 2 3 4 4 5 7 9 9 10 10 11 11 10 10 10 9 9 9 9 9 9 9 9 9 9 9 9 9 9 8 8 8 8 8 8 8 8 8 8 8 8 8 8 8 8 8 8 8
9 8 8 7 7 6 6 6 5 5 4 3 3 4 5 6 6 6 5 5 5 6 6 6 5 5 5 6 6 6 6 7 7 7 8 8 8 8 8 8 8 8 8 9 9 9 8 5 3 2 1 1 1 1 2 2 3 3 4 5 8 9 9 9 10 10 11 10 10 10 10 10 9 9 9 9 9 9 9 9 9 9 9 9 8 9 9 9 9 9 9 9 9 9 9 9 9 9 9 9 9 9 9
9 8 8 7 7 6 6 5 5 4 4 3 3 4 5 6 5 5 5 5 5 5 5 5 5 5 5 5 5 5 6 6 6 7 7 7 7 7 7 7 7 7 7 8 8 8 8 5 3 2 1 1 1 1 2 2 2 3 3 6 8 9 9 9 10 10 10 10 10 10 10 10 9 9 9 9 9 9 9 9 8 8 8 8 9 9 9 9 10 10 10 10 10 10 10 10 10 10 10 10 10 10 10
8 8 8 7 6 6 5 5 5 4 4 3 3 4 5 5 5 5 4 4 4 5 5 5 4 4 4 4 5 5 5 6 6 6 7 7 7 7 6 6 6 6 7 7 8 8 7 4 3 2 1 1 2 2 2 2 2 3 3 6 8 8 8 9 9 10 10 10 10 10 10 9 9 9 9 9 9 8 8 8 8 8 8 8 9 9 9 9 9 10 10 10 10 10 10 10 10 10 10 11 11 11 11
9 8 8 7 6 6 5 5 5 4 3 3 3 4 4 4 4 4 4 4 4 4 4 4 4 4 4 4 4 5 5 6 6 7 7 7 7 7 7 6 6 6 6 7 7 6 5 3 3 2 2 2 2 2 2 2 2 3 4 7 8 7 8 8 9 10 10 10 10 10 10 9 9 9 8 8 8 8 8 8 8 8 8 8 8 9 9 9 9 9 9 9 9 9 10 10 10 10 10 10 11 11 11
9 8 8 7 6 6 5 5 4 4 3 3 3 3 3 4 4 4 4 4 4 4 4 3 3 3 3 3 4 5 6 6 7 7 8 8 8 8 7 7 7 6 6 6 5 4 3 2 2 2 2 1 2 2 3 3 3 3 6 7 7 7 7 8 9 10 10 10 10 10 9 9 9 8 8 8 8 8 8 8 7 7 7 8 8 8 8 9 9 9 9 9 9 10 10 10 10 10 10 10 10 11 11
8 8 7 7 6 6 5 5 4 4 3 3 3 3 3 3 3 3 3 3 3 3 3 3 2 2 3 3 4 5 7 7 8 8 8 8 8 8 7 7 6 6 5 4 3 2 2 2 2 1 1 1 1 2 3 3 3 4 7 7 7 7 7 8 9 9 10 10 10 9 9 9 8 8 8 8 8 8 8 7 7 7 7 7 8 8 9 9 9 10 10 10 10 10 10 10 10 10 10 10 10 10 11
8 7 7 6 6 6 5 5 4 3 3 3 2 2 2 2 2 2 2 2 2 2 2 2 2 2 3 3 5 6 8 8 8 8 8 7 7 7 6 6 5 5 4 3 2 2 2 2 1 1 1 1 1 1 2 2 4 6 8 7 6 6 7 8 8 9 10 10 9 9 9 8 8 8 8 8 8 8 7 7 7 7 7 8 8 9 9 10 10 10 10 10 10 10 10 10 10 10 10 10 11 11 11
7 7 6 5 5 5 4 4 3 3 3 2 2 2 1 1 1 1 1 2 1 1 1 1 2 3 4 5 6 7 5 5 6 6 7 7 7 6 5 5 4 4 3 2 2 2 1 1 1 1 1 1 1 1 2 2 4 6 8 7 6 6 7 7 8 9 9 9 9 9 8 8 8 8 7 7 7 7 7 7 7 8 8 8 9 10 10 10 10 10 10 11 11 11 11 10 10 10 10 10 10 11 11
5 5 5 5 4 4 4 3 3 2 2 2 1 1 1 0 1 2 2 2 2 2 2 2 3 5 6 7 7 6 3 3 3 3 5 6 6 6 5 4 3 3 2 2 2 1 1 1 1 1 1 1 1 1 2 2 4 7 8 6 6 6 7 7 8 8 9 9 9 9 8 8 8 7 7 7 7 7 7 7 8 8 9 9 9 10 10 10 10 10 10 10 10 10 10 10 10 10 10 10 10 10 11
4 5 5 4 4 4 3 3 3 3 2 2 1 0 0 1 1 2 3 3 4 4 4 5 6 7 8 8 6 4 2 2 2 2 2 4 5 5 4 3 2 2 2 2 2 2 2 1 1 1 1 1 1 1 2 3 5 7 7 6 5 6 6 7 8 8 9 9 9 8 8 7 7 7 7 7 7 7 8 8 8 9 9 9 10 10 10 10 10 10 10 10 10 10 10 10 10 10 10 10 10 10 10
3 3 4 4 4 4 3 3 3 2 2 2 1 1 1 2 2 3 3 4 5 5 6 7 7 7 7 5 4 3 2 2 2 2 2 3 3 3 2 2 2 2 2 2 2 2 2 1 1 1 0 1 1 1 2 3 5 6 6 5 5 5 6 7 8 8 9 9 9 8 7 7 7 7 7 7 8 8 8 9 9 9 9 9 9 9 9 9 9 10 10 10 10 10 10 10 10 10 10 10 10 10 10
1 1 1 1 2 2 2 1 1 1 1 1 1 2 2 3 3 4 4 4 5 6 7 7 6 5 4 3 3 2 2 2 2 2 2 3 3 2 2 2 2 2 3 2 2 2 2 1 1 0 0 1 1 1 2 3 5 6 5 4 5 5 6 7 7 8 9 9 8 7 6 6 6 7 7 8 8 9 9 9 9 9 9 9 9 9 9 9 9 9 9 9 10 10 10 9 9 9 10 10 10 10 10
1 1 1 1 1 0 0 1 1 1 2 2 2 3 2 3 3 3 4 4 4 4 5 5 4 3 3 3 3 2 2 2 2 2 2 3 2 2 2 2 3 3 3 3 2 2 1 1 1 0 1 1 1 1 2 4 5 5 4 4 4 5 6 6 7 8 8 8 7 7 6 6 7 7 8 8 9 9 9 9 9 8 8 8 8 8 8 9 9 9 9 9 9 9 9 9 9 9 9 9 10 10 10
1 1 1 1 1 1 1 1 1 1 1 2 2 2 2 2 2 2 3 2 2 3 3 3 3 2 2 2 2 2 1 1 2 2 2 2 2 2 3 3 3 3 2 2 2 2 1 1 1 1 1 1 1 2 2 4 4 4 4 4 4 5 5 6 7 8 8 7 7 6 6 6 7 8 8 8 8 8 9 9 8 8 8 8 8 8 8 9 9 9 9 9 9 9 9 9 9 9 9 9 9 10 10
1 1 1 1 1 1 1 1 1 1 1 1 2 1 1 2 2 2 2 2 2 2 2 2 2 2 2 2 2 1 1 1 2 2 2 2 2 2 3 3 3 2 2 2 2 2 1 1 1 1 1 1 1 2 3 4 4 4 4 4 4 5 5 6 7 8 8 7 6 5 6 7 8 8 8 8 8 8 8 8 8 8 8 8 8 8 8 9 9 9 9 9 9 9 9 9 9 9 9 9 9 9 10
1 2 1 1 1 1 1 1 1 1 1 1 1 1 1 1 1 2 2 2 2 2 2 2 2 1 2 2 2 2 1 2 2 3 3 2 2 2 2 2 2 2 2 2 2 2 2 2 1 1 1 2 2 2 3 5 5 5 4 3 4 4 5 6 7 7 7 6 5 5 6 7 8 8 8 8 8 8 7 8 8 8 9 9 9 9 9 9 9 9 9 9 9 9 9 9 9 9 9 9 9 9 9
2 2 2 1 1 1 1 1 1 1 1 1 1 1 1 1 1 1 1 1 1 1 2 2 2 2 2 2 2 2 2 2 3 4 4 3 2 2 2 2 2 2 2 2 2 2 2 2 2 2 1 2 2 2 3 5 5 5 3 3 3 4 5 6 7 7 6 5 5 6 7 8 8 8 8 8 8 7 7 7 8 8 9 9 9 9 9 9 9 9 9 9 9 9 9 9 9 9 9 9 9 9 9
2 2 2 2 1 1 0 0 1 1 1 1 1 1 1 0 0 1 1 1 1 1 1 2 2 2 2 2 2 2 2 2 3 4 4 3 2 1 1 1 2 2 2 2 2 1 2 2 1 1 1 1 2 2 3 5 6 5 3 2 3 4 4 5 6 6 6 5 5 6 7 8 8 8 8 8 8 8 8 8 8 8 9 9 9 9 9 9 9 9 8 8 8 8 9 9 9 9 9 9 9 9 10
2 2 2 2 1 1 1 1 1 1 1 1 1 1 1 1 0 0 1 1 1 1 1 1 1 1 1 1 1 2 2 3 3 4 3 2 2 1 1 1 2 2 2 2 1 1 1 1 1 1 1 1 2 2 2 4 5 5 4 2 3 4 4 5 6 6 6 5 6 7 8 8 8 8 8 8 8 8 8 8 8 8 8 9 9 9 9 8 8 8 8 8 9 9 9 9 9 9 9 10 10 10 10
2 2 2 2 1 1 2 1 1 1 1 1 1 0 1 1 1 0 0 1 1 1 1 1 1 1 1 1 1 2 2 2 3 3 2 2 1 1 1 1 2 2 2 2 2 2 2 2 1 1 2 2 2 2 2 3 5 5 4 2 3 4 4 5 5 5 5 5 6 6 7 7 8 8 8 8 8 8 8 8 8 8 8 8 9 9 8 8 8 8 9 9 9 9 9 10 10 10 10 10 10 10 10
3 2 2 2 2 2 2 2 2 1 1 1 1 1 1 1 1 1 1 0 1 1 1 1 1 1 1 1 2 2 2 2 2 2 1 1 1 1 1 1 2 2 2 2 1 1 1 2 2 2 2 2 2 2 2 3 4 5 4 1 3 4 4 4 5 5 5 5 6 6 7 7 7 8 8 8 9 9 9 9 9 9 9 9 9 8 8 8 8 9 9 9 10 10 10 10 10 10 10 10 10 10 10
3 2 2 2 2 2 2 2 2 1 1 1 1 2 1 1 1 1 1 1 1 1 1 1 1 1 1 1 2 1 1 2 2 1 1 1 1 1 2 2 2 2 1 1 1 1 1 1 2 2 1 2 2 2 2 2 3 4 4 1 4 4 4 4 4 5 5 5 6 6 6 7 7 8 8 9 9 9 9 9 9 9 9 9 9 9 8 8 9 9 10 10 10 10 10 10 10 10 10 10 10 10 9
3 3 2 2 2 2 2 2 2 2 1 2 2 2 1 1 1 1 1 1 1 1 1 2 2 2 1 1 1 1 1 1 1 1 1 0 1 2 2 2 2 1 1 1 1 1 1 1 1 2 1 2 2 2 2 2 2 3 3 1 3 4 4 4 4 4 5 6 6 6 6 7 7 8 8 9 9 9 9 10 9 9 9 9 9 9 9 9 9 10 10 10 10 10 10 10 10 10 10 10 10 10 9
3 3 3 3 3 3 2 2 2 2 2 2 2 2 1 1 2 2 2 2 2 2 1 2 2 2 2 2 1 1 1 1 1 1 1 1 2 2 2 2 1 1 1 1 1 1 1 1 1 2 1 2 2 2 2 2 2 2 4 1 2 4 4 3 3 4 5 5 6 6 6 7 7 7 8 8 9 9 10 10 10 10 10 10 10 10 9 10 10 10 10 10 10 10 10 10 10 10 10 10 10 10 9
4 3 3 3 3 2 2 3 3 3 2 2 2 2 2 2 2 2 3 2 2 2 2 2 3 2 1 1 1 1 1 0 0 1 2 2 2 1 1 1 1 1 1 1 1 1 1 1 1 2 2 2 2 2 2 2 2 2 2 2 0 3 3 3 2 3 4 4 5 6 6 6 7 7 7 8 8 9 9 10 10 10 10 10 10 10 10 10 10 10 10 10 10 10 10 10 10 10 10 10 10 10 10
4 4 3 3 3 2 3 3 3 3 2 2 2 2 3 3 3 3 3 3 2 2 3 3 3 2 1 1 1 1 1 1 1 1 2 2 1 1 1 1 1 1 1 1 1 1 1 1 1 1 2 2 2 2 2 1 1 2 2 3 2 0 3 3 2 2 2 3 4 5 5 6 6 6 7 7 8 8 9 9 10 10 10 10 10 10 10 10 10 10 10 10 10 10 10 10 10 10 10 10 10 10 10
4 4 4 3 3 3 3 4 3 3 2 2 2 3 4 3 3 3 2 2 2 2 2 2 2 1 0 1 1 2 2 1 2 2 2 2 1 1 1 1 1 1 1 1 1 1 1 1 1 1 2 2 2 2 2 1 1 1 2 2 3 2 1 1 1 1 1 2 2 3 4 5 5 6 6 6 7 8 8 9 9 10 10 10 10 10 10 10 11 11 11 11 10 10 10 10 10 10 10 10 10 10 10
4 4 3 4 4 4 4 4 3 3 2 2 3 3 3 3 3 3 2 2 2 3 2 2 1 1 0 1 2 2 2 2 2 2 2 1 1 1 1 1 1 1 1 1 1 1 1 2 2 1 2 2 2 2 2 1 1 1 2 2 2 2 2 1 1 1 2 1 1 2 2 3 4 4 5 5 6 7 7 8 9 9 10 10 10 10 10 10 11 11 11 11 10 10 10 10 10 10 10 10 10 10 10
4 4 4 3 4 4 4 4 3 2 2 2 3 3 3 3 2 2 3 3 3 3 2 2 1 1 1 2 2 2 2 2 2 1 1 1 1 1 1 1 1 1 1 1 1 1 1 2 2 2 2 1 2 2 2 1 1 2 2 2 2 2 1 1 1 1 2 2 2 1 1 2 2 3 4 4 5 6 6 7 8 8 9 10 10 10 10 10 11 11 11 11 10 10 10 10 10 10 10 10 10 10 10
4 4 4 4 4 4 4 3 3 2 3 3 2 2 3 3 3 2 3 3 3 2 2 2 2 1 2 2 2 2 2 2 2 1 1 1 1 1 1 2 1 1 1 1 1 1 1 1 2 2 1 1 1 1 1 1 2 2 2 2 2 2 2 1 1 1 2 2 3 3 3 2 2 2 3 3 4 5 5 6 7 8 8 9 10 10 10 10 11 11 11 11 10 10 10 10 10 10 10 10 10 9 9
4 4 4 4 4 4 4 3 3 3 3 3 2 2 2 3 3 3 2 3 2 1 0 1 2 1 1 2 2 2 1 1 1 1 0 1 1 2 2 2 2 2 2 2 1 1 1 1 2 2 1 1 1 1 1 1 2 2 2 2 2 2 2 1 1 1 2 2 3 4 4 4 3 3 3 3 4 4 5 5 6 7 8 8 9 10 10 10 10 11 11 11 10 10 10 10 10 10 10 10 10 9 9
5 4 4 4 4 4 4 3 3 3 3 3 3 3 3 3 4 3 3 3 2 1 1 1 2 2 1 1 1 1 1 1 1 1 1 1 1 2 2 2 2 2 2 2 2 1 1 1 2 1 1 1 1 0 1 2 2 2 2 2 2 1 1 1 1 1 1 2 2 3 5 5 5 5 4 4 4 4 5 5 6 6 7 8 9 9 10 10 10 10 11 11 10 10 10 10 10 10 10 10 9 9 9
5 5 4 4 4 4 3 4 4 4 3 3 3 3 3 3 3 3 4 3 2 1 1 2 1 2 2 1 1 1 1 1 1 1 1 1 1 2 2 2 2 2 2 2 2 2 2 2 1 1 1 1 0 1 2 2 2 2 2 2 2 1 1 1 1 1 1 1 1 2 2 5 6 6 6 5 5 5 5 6 6 6 7 7 8 9 9 9 10 10 10 10 10 10 10 10 10 10 10 9 9 9 9
5 5 5 5 4 3 3 4 4 4 3 3 3 3 3 3 2 2 3 3 2 2 1 2 2 1 2 2 1 1 1 0 1 1 1 1 2 2 2 2 2 2 2 2 2 2 2 2 1 1 1 0 1 2 2 2 2 2 2 2 1 1 1 1 1 1 1 1 1 1 1 3 4 6 6 6 6 6 7 7 7 7 7 7 8 8 9 9 9 10 10 10 10 10 9 9 9 10 9 9 9 9 9
5 5 5 4 4 3 3 4 4 4 3 3 3 3 3 2 2 2 1 2 2 2 1 1 2 2 2 2 2 1 1 0 0 1 1 1 2 2 2 2 2 2 2 2 2 2 2 2 1 1 1 1 2 2 2 2 2 2 1 1 1 1 1 1 1 1 1 1 1 1 1 1 2 4 5 5 6 6 7 7 7 7 7 7 8 8 8 8 9 9 9 10 10 9 9 9 9 9 9 9 9 9 9
5 5 4 4 4 4 4 5 4 4 4 4 4 3 3 2 2 2 1 1 1 2 1 1 1 2 2 2 2 2 2 1 1 1 1 1 2 2 2 2 2 2 3 2 2 2 2 1 1 1 2 2 2 2 2 2 2 1 1 1 1 1 1 1 1 1 1 1 1 1 1 1 1 2 2 3 4 4 5 6 6 7 7 7 8 8 8 8 8 8 9 9 9 9 9 9 9 9 9 9 9 9 9
5 4 4 4 4 4 4 5 4 4 4 4 4 4 3 3 2 2 2 1 1 2 2 1 1 2 2 2 1 1 1 2 2 2 2 1 2 2 2 2 2 2 2 2 2 2 2 2 2 2 2 3 3 2 2 2 2 1 1 2 2 1 2 2 2 2 2 1 1 1 1 1 1 1 1 1 2 2 3 5 6 6 7 7 7 8 8 8 8 8 8 9 9 9 9 9 9 9 9 9 9 9 9
5 4 4 4 4 4 5 5 5 4 4 4 4 4 4 3 3 3 3 2 2 2 2 2 2 1 2 2 2 1 1 1 1 2 2 2 2 2 3 2 2 2 1 2 2 2 2 2 2 2 3 3 3 3 2 2 2 2 2 2 2 2 2 2 3 3 2 1 1 1 2 2 2 2 1 1 1 1 2 3 5 6 6 7 7 7 8 8 8 8 8 9 9 9 9 9 10 10 10 10 10 9 9
6 5 4 5 5 5 5 5 5 5 5 5 5 5 6 5 4 4 3 3 3 2 2 2 2 2 1 1 1 1 1 0 1 2 2 2 2 3 2 2 2 2 2 2 2 3 3 3 3 3 3 3 3 3 3 2 2 2 2 2 2 2 3 3 3 3 2 2 2 2 2 2 2 2 2 1 1 1 1 2 3 5 6 7 7 7 8 8 8 8 8 9 9 9 9 9 10 10 10 10 10 10 10
6 5 4 4 5 5 4 5 5 5 5 6 6 6 6 5 5 4 3 3 3 3 2 2 2 2 2 0 1 1 1 1 0 1 2 3 3 3 3 3 3 3 3 2 2 2 3 3 3 3 3 3 3 3 3 2 2 2 2 2 2 3 3 3 3 2 2 2 2 2 2 2 2 1 1 1 1 1 1 1 2 3 5 6 7 8 8 8 8 8 8 9 9 9 9 9 10 10 10 10 10 10 10
6 5 4 4 5 5 5 5 5 5 5 5 5 4 4 4 4 4 4 4 3 3 2 2 1 1 2 1 1 1 1 1 1 2 4 3 2 1 2 3 4 3 3 3 2 2 2 2 3 3 3 2 2 2 3 2 2 2 2 2 2 2 3 2 2 2 2 2 2 2 2 2 2 1 1 1 1 1 1 1 2 2 3 4 5 6 6 7 8 8 8 9 9 9 9 9 10 10 10 10 10 10 10
6 6 6 5 5 5 5 6 6 5 5 4 3 3 4 4 4 4 4 4 3 3 3 2 1 1 1 1 1 0 1 1 1 2 3 2 2 2 2 1 2 4 4 4 3 2 2 2 2 2 3 2 2 2 3 2 2 2 2 3 2 2 2 2 2 2 2 2 2 2 2 2 2 1 1 1 1 2 2 2 2 2 2 2 3 3 4 4 6 8 8 8 8 9 9 9 9 10 10 10 10 10 10
7 7 7 6 6 5 5 6 6 6 6 4 3 3 3 3 3 3 3 4 3 3 4 3 2 1 2 1 1 0 1 1 1 2 4 3 1 1 2 2 2 3 4 4 4 3 3 3 3 3 3 3 3 3 3 3 2 2 2 2 2 2 2 2 2 2 2 2 2 2 2 2 2 2 2 2 2 2 2 2 2 2 2 2 2 3 3 4 6 7 8 8 8 8 9 9 9 9 10 10 10 10 11
7 7 7 6 6 5 5 5 6 6 6 5 4 4 3 3 3 3 2 3 3 3 3 4 3 2 1 1 1 1 1 2 2 1 2 3 2 1 2 3 2 1 1 1 2 3 3 3 3 3 3 2 3 3 2 2 2 2 2 2 2 1 2 2 2 2 1 2 2 2 2 2 2 2 2 2 3 3 3 2 2 2 2 2 3 3 3 5 7 8 8 8 8 8 8 8 9 9 9 10 10 10 11
8 8 8 7 6 5 5 5 6 5 5 5 5 5 4 4 4 4 3 3 3 3 3 3 4 3 2 1 1 1 1 1 2 1 1 2 3 3 2 2 1 1 1 1 1 1 3 3 3 4 3 2 2 2 2 2 2 2 1 1 1 2 2 2 2 2 1 1 1 1 2 2 2 2 2 2 2 3 3 3 3 3 3 3 3 3 3 4 6 8 7 8 8 8 8 8 8 8 9 9 10 10 10
8 9 9 8 6 6 5 6 6 5 5 4 4 5 5 6 6 5 5 5 5 5 4 3 4 4 4 2 1 1 1 1 1 1 1 1 2 3 3 2 1 1 1 2 1 1 3 2 2 2 3 2 2 2 2 2 2 2 1 1 2 2 2 2 2 2 1 1 1 1 1 2 2 2 2 2 2 2 2 3 3 3 3 3 3 3 4 6 6 6 6 6 7 8 8 7 7 8 8 9 9 10 10
9 8 8 8 7 7 6 6 6 6 5 4 4 5 5 5 6 6 6 6 6 6 6 5 4 4 4 3 3 2 0 1 1 1 1 1 1 1 3 4 3 2 1 0 1 3 3 1 2 2 3 2 1 1 1 2 2 2 2 1 2 2 2 2 2 2 2 2 2 2 1 1 1 2 2 2 2 3 3 3 3 3 3 3 3 4 4 4 4 4 4 4 5 7 8 7 7 7 8 8 9 10 10
8 8 8 8 9 8 7 6 6 6 5 5 5 5 5 5 5 5 5 5 5 6 5 5 5 4 4 4 4 3 2 0 1 1 1 1 1 1 1 3 3 3 3 3 3 2 2 0 1 1 3 3 1 1 2 2 2 2 2 2 2 1 2 2 2 2 2 2 2 2 2 1 1 1 1 2 2 2 3 2 3 3 3 3 3 3 3 3 3 3 3 3 3 4 7 7 6 7 7 8 9 9 10
8 8 9 9 9 9 8 7 7 6 6 6 5 4 4 4 4 4 5 5 6 6 5 5 5 4 3 3 4 4 3 2 1 0 1 1 1 1 1 0 1 2 3 3 3 3 2 2 1 1 1 3 3 2 1 2 2 2 2 2 2 2 2 2 2 2 2 2 2 2 2 1 1 1 1 1 2 2 3 3 3 3 3 3 3 3 3 3 3 3 3 3 3 4 5 5 6 6 7 8 9 9 10
8 8 8 8 8 9 8 7 7 6 6 6 5 4 4 4 5 5 6 6 6 6 5 5 5 4 4 3 4 4 4 4 3 1 0 1 1 1 1 1 2 2 2 1 2 3 4 3 2 2 1 1 3 3 2 2 1 2 2 2 2 2 2 2 2 2 2 2 2 2 2 1 1 1 1 1 2 2 2 2 2 3 3 3 3 3 3 4 4 4 4 4 4 4 5 5 5 6 7 8 9 10 11
8 8 7 7 8 8 8 7 6 6 6 6 5 4 5 5 5 5 5 5 5 6 6 5 4 4 4 4 5 4 5 4 3 2 2 1 0 1 0 1 2 2 3 2 2 1 3 3 3 3 3 2 1 2 3 3 2 2 2 2 2 2 2 2 2 2 2 2 1 1 2 2 1 1 1 1 1 2 2 2 2 2 2 2 2 2 3 3 3 3 4 4 5 4 5 5 6 7 8 9 10 11 11
8 8 8 7 7 7 7 6 6 6 5 6 5 5 5 6 5 5 4 4 4 5 5 4 4 3 3 4 5 5 4 4 4 3 3 3 2 0 0 1 1 1 2 2 2 2 2 2 2 3 3 3 2 1 2 3 3 3 2 2 2 2 2 2 2 2 2 2 2 1 1 2 2 2 1 1 1 2 2 2 3 2 2 2 2 2 2 2 2 2 2 3 4 4 5 6 7 7 8 9 10 11 12
Wind_Direction
117 119 121 121 120 118 116 113 110 108 106 103 100 97 93 90 88 86 84 83 82 80 77 74 73 73 73 73 72 71 70 69 69 70 70 72 73 74 76 76 75 73 71 70 70 70 69 63 55 44 38 32 26 21 20 12 6 360 357 355 350 341 331 335 354 12 17 24 30 35 37 35 34 33 31 29 27 26 25 25 23 22 20 19 18 20 21 22 22 22 21 18 17 17 17 17 17 17 17 18 19 19 19
125 126 127 125 123 119 116 113 110 108 106 104 101 99 96 94 92 90 87 85 82 80 77 74 71 70 70 70 70 70 69 69 69 69 69 70 71 73 74 75 75 73 71 69 68 68 67 63 56 47 41 31 22 15 12 4 359 355 353 349 342 333 319 339 357 11 18 23 28 31 32 31 30 29 27 25 23 21 20 19 18 17 16 14 14 14 15 16 17 18 18 16 15 15 15 16 15 13 11 11 10 10 10
132 132 130 126 123 119 116 113 110 107 105 103 102 101 100 99 96 93 88 84 81 78 75 73 71 69 69 69 69 69 68 68 68 68 68 68 69 70 72 74 74 73 72 69 68 67 66 64 61 52 45 31 19 10 4 356 352 350 348 342 336 330 324 344 359 12 19 24 27 29 29 29 28 27 25 23 21 18 17 16 15 14 12 11 10 10 10 11 11 12 13 12 11 11 13 14 15 13 10 8 6 4 4
136 134 130 125 121 117 114 112 109 107 105 103 103 103 103 101 97 91 85 80 77 73 71 70 69 69 69 69 68 68 67 66 65 65 65 65 66 68 70 72 73 73 73 71 68 65 61 58 57 56 49 35 21 8 358 350 347 346 342 336 329 327 331 358 10 16 21 24 26 27 28 28 27 26 24 22 20 18 16 16 14 13 11 10 8 7 7 7 7 8 8 8 7 7 8 10 11 11 10 8 5 2 1
137 133 129 125 122 119 117 115 112 110 107 106 107 107 108 103 97 91 84 80 75 72 69 69 69 68 68 67 66 65 64 63 62 62 62 63 64 65 67 69 71 72 74 73 70 67 62 53 52 54 52 39 22 6 352 345 343 341 336 331 325 330 348 9 16 18 20 22 24 25 26 26 26 25 23 21 19 17 15 16 15 14 12 10 8 7 6 6 5 5 5 5 4 4 4 6 6 6 5 4 3 360 359
137 133 130 127 125 124 122 120 118 114 112 111 111 112 111 105 97 91 85 80 76 73 70 68 68 67 66 64 63 62 60 60 59 59 59 60 61 63 65 67 68 70 72 73 72 70 68 56 48 46 47 39 21 1 346 340 338 336 330 327 324 331 349 13 19 18 18 19 21 23 24 24 24 23 21 19 17 15 14 16 16 16 14 12 9 8 7 5 4 4 3 3 2 2 2 2 2 2 0 0 359 357 356
139 136 134 132 131 130 129 127 123 120 116 116 116 115 110 103 97 91 86 82 78 75 72 69 67 65 64 62 59 58 56 55 55 55 55 57 59 61 63 65 64 64 66 69 70 70 69 62 53 45 39 33 16 356 339 335 333 330 326 325 327 333 349 10 17 17 15 16 18 20 22 23 22 21 19 16 14 13 12 15 16 15 14 11 9 8 7 5 3 2 1 2 1 0 0 360 360 360 359 358 357 355 353
142 141 139 137 136 135 133 129 125 121 119 120 122 119 111 103 96 91 87 85 82 78 74 69 65 62 60 57 55 53 51 50 50 51 52 53 55 58 61 61 60 59 59 62 64 65 65 65 59 49 33 27 11 354 336 331 328 325 322 322 323 330 348 11 18 18 15 15 16 18 21 22 21 19 17 14 13 11 11 13 14 13 11 9 7 5 5 3 2 1 1 2 2 1 360 359 359 358 357 357 356 354 352
145 144 142 140 139 137 134 129 125 122 121 123 124 120 111 103 97 92 89 88 86 82 77 69 63 58 55 52 49 47 46 45 45 45 47 49 51 54 57 57 55 53 53 55 58 60 61 65 63 54 33 24 5 348 333 326 320 317 317 318 319 326 347 12 20 18 15 14 14 17 19 21 20 18 15 13 12 11 11 12 11 10 8 6 4 3 2 2 2 2 2 4 4 2 1 360 359 357 356 355 355 355 354
148 146 144 142 140 138 134 130 127 125 124 123 118 112 106 101 97 93 91 91 88 83 78 69 62 54 48 44 42 40 38 38 38 39 41 43 45 48 51 50 48 47 47 50 52 55 57 62 63 56 38 23 357 336 327 315 310 311 312 313 318 328 346 11 19 19 16 15 15 17 19 20 19 17 14 13 12 12 13 12 10 8 6 4 3 2 3 4 5 5 5 5 5 4 3 1 359 358 355 355 355 357 358
149 147 146 145 144 142 139 135 132 131 130 120 107 100 98 97 96 93 92 89 86 81 76 68 59 50 42 37 34 31 30 30 30 31 33 35 37 40 42 41 39 38 40 46 50 53 55 58 58 52 40 14 349 334 326 310 306 307 308 307 316 329 347 9 19 21 19 17 16 17 19 19 18 17 15 14 13 13 14 13 11 7 5 4 4 5 6 7 8 8 7 7 5 4 3 2 360 358 356 356 357 358 359
152 151 149 148 149 150 147 143 140 138 136 120 102 94 93 95 95 93 91 87 83 79 74 66 56 46 37 31 26 23 21 22 22 22 23 25 26 27 28 27 25 26 33 44 49 52 54 54 50 41 29 11 351 337 322 310 306 304 301 305 315 330 350 8 19 23 22 19 18 17 19 19 18 17 16 15 15 15 16 15 13 9 6 6 7 8 10 11 11 11 10 8 6 5 3 2 1 359 357 357 357 358 359
155 155 155 156 157 158 156 152 149 145 140 122 107 97 95 95 95 94 91 86 82 77 73 66 56 44 34 25 20 16 15 16 16 16 16 16 15 14 12 10 9 14 28 45 51 53 54 52 45 34 24 11 354 337 318 311 305 300 296 306 318 335 355 8 17 23 24 21 20 18 18 18 18 18 17 17 17 17 17 17 15 13 11 10 11 13 15 16 16 15 14 12 9 7 6 4 3 2 1 359 359 359 358
159 160 161 164 166 166 165 161 157 152 143 128 114 105 101 101 100 98 93 89 84 79 74 67 56 42 29 19 14 14 17 17 17 16 14 11 8 5 1 358 360 8 27 47 54 56 57 54 46 34 22 12 352 337 325 320 311 303 301 310 324 342 359 8 16 22 25 23 21 19 19 18 18 18 19 19 19 19 18 19 18 17 16 16 17 19 21 22 21 20 19 16 14 11 9 8 6 5 4 3 2 2 0
164 166 167 171 174 175 172 170 166 159 149 136 124 116 111 109 107 103 99 93 88 82 75 65 51 36 22 12 15 22 28 26 23 20 16 10 5 359 355 354 360 13 32 52 62 62 60 56 50 39 20 14 353 335 329 324 316 308 306 316 330 347 1 8 15 21 26 25 22 20 19 19 19 20 21 21 22 21 19 20 21 22 23 23 24 25 27 26 26 24 23 20 18 16 13 12 10 9 8 7 7 6 4
169 171 172 175 180 183 181 179 175 169 159 147 136 127 119 114 109 103 96 91 85 81 74 61 43 25 15 17 25 33 41 35 29 23 17 10 3 358 354 359 10 27 45 59 66 63 60 53 46 35 18 9 352 335 329 324 315 310 309 320 336 350 1 8 14 20 25 25 23 21 19 21 21 22 23 25 25 23 20 22 24 27 29 29 30 31 31 29 28 26 24 22 20 18 16 15 13 12 10 10 10 8 7
171 174 176 180 187 192 191 189 186 181 173 160 149 138 129 109 76 58 53 51 52 51 51 42 27 22 21 31 38 43 48 39 29 21 15 9 5 2 2 11 27 47 71 72 69 63 61 54 42 28 11 3 349 335 326 322 314 311 310 323 339 353 2 8 14 19 25 25 24 22 20 23 23 23 26 28 28 26 22 25 28 31 33 34 34 34 33 31 28 26 24 22 20 19 17 16 15 13 12 12 11 10 9
172 175 178 184 194 202 203 202 200 197 191 179 167 155 150 16 352 356 2 2 1 358 359 11 21 27 30 37 45 50 46 38 26 17 12 10 10 11 17 26 39 56 76 71 67 63 61 54 45 28 11 357 338 322 319 314 310 310 311 325 342 356 4 8 13 18 24 25 24 23 23 25 25 25 28 31 30 28 25 29 33 35 37 36 36 35 33 31 28 26 24 22 21 19 17 16 15 14 13 13 11 10 9
175 178 181 188 198 208 213 212 211 211 211 209 205 202 327 335 340 344 349 350 349 349 352 5 18 27 32 38 45 51 41 30 20 15 16 15 16 18 28 34 44 56 61 57 53 51 51 45 37 25 10 342 312 303 314 310 309 310 311 328 347 0 7 9 12 17 22 24 25 25 25 29 28 27 30 32 32 30 28 32 36 38 38 37 36 35 33 31 29 27 25 23 21 19 17 16 15 14 13 13 11 10 8
168 178 186 193 204 214 220 221 221 221 223 230 248 357 359 352 353 354 354 354 354 354 357 5 16 27 31 37 45 50 35 24 20 22 27 23 19 19 27 28 41 52 50 44 41 40 39 35 27 17 356 306 295 299 318 309 310 311 313 334 354 6 10 10 13 16 20 23 25 27 28 32 32 31 33 33 31 30 30 34 36 38 39 38 36 34 32 30 29 27 25 23 21 19 17 15 14 13 13 12 11 9 8
118 129 167 196 213 222 230 242 260 276 295 308 21 37 22 17 13 10 9 8 6 4 5 10 20 30 30 35 40 39 28 19 21 29 35 27 20 14 16 20 35 43 40 36 35 35 28 23 17 6 334 303 302 309 316 309 312 318 326 347 4 12 13 13 13 15 19 23 26 29 31 35 36 35 35 33 31 29 29 32 35 37 38 37 36 34 31 30 29 27 26 23 21 18 16 14 13 12 11 11 10 8 7
86 81 71 54 58 77 64 36 26 18 10 16 42 53 33 29 23 22 25 24 18 13 12 18 27 36 31 31 33 31 22 18 25 34 36 28 18 11 19 25 33 37 32 29 28 26 15 8 4 356 339 317 312 310 310 318 324 333 352 6 15 19 18 16 15 16 19 24 28 32 35 39 41 40 38 34 31 27 26 29 32 34 37 37 36 34 31 29 28 27 26 23 20 17 15 13 11 10 9 9 8 6 5
101 103 91 73 71 75 77 73 66 52 27 34 52 64 41 36 30 27 31 34 28 21 19 23 29 35 34 37 38 35 25 28 40 48 47 29 18 16 24 27 30 31 27 23 21 16 7 360 358 359 356 331 319 312 307 329 341 355 12 20 24 25 24 20 17 17 20 26 31 37 42 45 46 44 41 35 30 27 25 26 28 32 35 37 36 34 32 29 27 26 25 22 19 16 14 12 10 8 7 7 6 5 4
122 135 155 145 125 108 100 94 91 86 73 58 67 73 48 40 35 31 27 31 30 25 22 23 25 27 31 45 50 52 48 47 58 67 70 43 24 19 25 25 24 24 22 19 16 12 8 2 360 360 358 336 323 314 310 335 353 7 18 25 29 30 30 25 21 19 22 29 36 44 49 50 48 46 42 37 32 27 25 25 27 30 35 37 36 34 32 29 27 25 24 21 18 15 13 10 8 6 5 4 4 4 3
147 161 187 183 181 157 119 117 123 125 105 94 93 88 59 43 40 39 31 27 26 26 27 29 28 26 28 42 47 48 50 59 63 68 73 59 40 25 23 21 19 15 15 16 16 13 10 3 2 360 356 337 324 315 311 335 352 7 16 27 35 37 36 31 25 22 25 33 42 51 56 53 49 45 41 37 33 30 28 28 29 32 36 37 36 33 31 28 26 24 22 20 17 14 11 9 7 5 3 3 3 3 2
164 175 197 194 190 177 134 140 154 155 128 113 108 105 92 58 49 52 46 37 34 33 34 37 35 32 33 41 41 39 41 58 62 62 59 56 47 33 21 17 13 10 14 17 17 17 13 4 2 359 350 331 321 315 315 333 345 358 11 33 47 49 44 36 29 26 29 38 49 57 58 54 49 45 41 38 35 33 31 32 33 35 36 37 35 32 29 26 24 22 20 18 15 12 9 7 6 4 2 2 2 2 2
171 186 200 197 189 180 164 181 185 173 140 115 110 112 123 136 38 56 59 55 53 48 39 36 30 28 33 43 44 42 35 52 57 55 48 43 40 36 30 21 18 16 20 18 17 16 8 2 356 349 334 325 318 315 313 332 339 346 2 44 66 62 53 42 33 29 34 44 54 59 59 53 49 44 41 39 37 35 34 34 35 36 37 37 34 31 27 24 22 20 18 16 13 11 9 7 6 4 3 2 2 2 2
182 196 199 193 188 190 208 220 218 196 146 111 102 107 145 204 248 351 53 54 56 53 41 34 31 30 30 43 52 51 45 53 54 51 41 32 27 29 50 42 32 24 20 18 13 8 353 348 342 335 325 326 322 315 311 326 333 339 351 53 82 76 62 48 38 34 40 50 57 59 58 52 47 44 42 40 38 37 36 36 36 36 37 36 34 31 26 22 19 17 16 14 12 11 9 8 6 5 4 3 3 2 2
193 202 193 190 191 202 220 227 227 211 156 121 112 132 183 196 218 262 19 63 68 70 74 68 55 48 45 45 52 56 54 61 59 52 33 21 12 13 53 60 47 31 18 18 11 359 342 336 334 335 337 336 326 317 315 323 329 334 339 50 93 89 70 54 44 41 47 55 59 59 56 51 47 44 43 42 40 39 37 36 36 36 36 35 33 31 26 21 17 15 14 14 13 12 10 9 7 6 5 4 3 2 2
200 202 188 189 194 205 221 229 229 213 150 138 165 219 231 173 174 196 220 109 88 86 89 88 75 61 51 50 55 57 57 70 73 62 24 12 3 8 35 59 51 32 20 14 360 344 335 333 334 338 342 332 321 315 314 324 329 332 334 65 105 98 78 59 49 47 52 58 60 59 55 50 47 45 44 43 42 40 38 37 36 35 35 34 33 30 26 21 17 15 15 15 14 13 11 9 7 6 5 4 3 3 2
199 197 183 186 199 213 221 229 233 220 150 155 186 215 218 154 152 166 175 149 130 119 117 110 97 84 69 63 61 59 49 72 85 89 34 7 9 17 31 48 47 34 14 351 330 321 321 326 329 330 330 322 317 314 315 327 332 334 336 96 115 106 88 67 53 49 55 59 60 59 55 51 49 47 46 45 43 41 39 38 36 35 34 33 31 29 25 21 18 16 16 16 15 13 11 9 7 5 4 3 3 3 2
195 189 179 186 204 218 222 229 237 235 180 172 192 208 194 137 134 141 138 145 155 162 161 145 130 120 111 91 77 58 40 79 109 130 148 51 30 28 24 35 39 27 342 328 320 319 320 322 323 321 319 319 317 315 317 327 332 334 336 118 123 114 100 78 58 50 54 57 58 57 55 52 50 49 47 45 43 42 40 39 37 35 34 32 29 27 24 21 19 17 16 16 15 13 11 8 6 4 3 3 2 2 2
192 187 184 192 204 213 213 224 234 234 205 185 193 199 163 120 112 112 112 115 119 128 139 130 124 119 117 116 108 86 50 92 139 149 131 72 45 27 7 18 16 357 323 329 330 326 326 327 325 320 316 317 313 312 315 323 330 331 328 347 121 124 114 93 69 55 53 55 56 56 54 52 50 49 47 44 43 41 40 38 36 35 33 30 28 25 23 21 19 18 16 15 14 12 10 7 5 3 2 2 2 2 2
193 192 189 196 202 206 202 220 231 231 214 196 192 186 152 114 100 94 97 93 86 80 78 86 88 88 91 115 116 103 69 61 133 129 99 68 45 18 358 7 354 333 321 330 330 327 326 330 326 322 317 316 313 312 314 324 331 332 327 329 59 131 127 114 89 64 53 53 54 54 53 51 49 47 45 43 41 39 38 36 34 32 31 28 26 24 22 21 19 17 16 14 12 11 8 6 4 2 360 1 2 2 2
194 194 192 196 200 204 204 219 227 228 214 192 180 165 140 119 106 97 93 92 82 68 57 65 68 67 51 95 97 82 50 30 46 72 82 67 39 3 360 359 339 319 312 323 327 328 328 329 325 323 324 323 318 314 315 325 334 335 331 333 335 93 135 132 116 79 51 50 51 51 52 49 47 45 43 41 39 37 36 34 31 29 27 26 24 22 21 20 18 17 15 13 11 9 7 5 2 1 359 1 2 3 2
193 194 193 196 200 207 214 222 225 222 203 177 158 144 132 124 117 111 105 101 92 81 66 64 69 78 38 70 67 59 29 20 34 51 61 57 25 349 2 347 323 308 319 336 338 337 343 337 330 329 331 323 316 313 315 322 335 343 338 335 336 345 65 108 92 41 26 33 41 46 48 46 43 41 39 38 36 34 33 31 28 26 24 22 21 20 20 19 17 16 14 12 10 8 6 3 2 0 360 2 2 3 2
192 193 194 197 201 207 218 225 222 211 185 159 145 139 135 133 131 129 128 120 115 110 100 87 88 102 96 71 67 57 21 22 35 43 33 17 354 344 2 332 313 310 346 346 346 347 354 338 330 326 322 313 310 311 313 322 341 350 339 337 338 345 6 14 5 349 343 350 9 29 40 40 37 35 33 33 32 31 29 27 24 22 19 18 17 16 17 17 16 15 13 11 9 7 4 2 1 1 1 3 3 3 2
192 194 197 200 203 209 221 223 214 190 163 149 145 146 145 143 140 138 137 134 134 131 121 113 101 74 48 64 69 62 25 36 50 49 7 348 344 347 347 322 317 326 352 340 348 358 355 332 322 316 308 307 308 311 312 333 352 356 347 345 344 345 353 360 352 342 339 333 331 337 359 16 22 23 22 24 25 25 24 23 20 18 15 13 12 12 13 14 14 13 12 10 8 5 3 2 1 1 2 3 3 3 2
195 197 202 205 209 215 223 217 194 164 150 148 150 150 145 143 141 137 133 135 137 136 131 131 113 75 47 55 60 57 34 48 62 65 359 344 341 337 326 318 323 336 346 341 351 2 347 322 313 308 302 305 304 306 319 350 2 2 359 352 349 348 352 356 355 353 350 341 338 335 331 332 342 356 3 9 14 16 17 17 15 13 10 8 7 7 9 10 11 11 10 8 6 4 2 1 1 2 2 3 3 2 1
198 202 206 209 214 218 221 203 174 155 150 151 152 149 142 145 147 145 133 128 121 110 124 139 128 104 52 51 53 49 27 46 64 72 10 350 332 319 312 317 326 338 347 348 350 349 331 317 310 305 301 293 287 296 360 14 12 7 3 360 355 352 354 356 2 7 7 358 350 343 334 330 329 334 342 351 359 5 8 10 9 7 4 2 2 3 4 6 7 8 7 6 4 2 1 1 1 1 2 2 2 1 360
200 204 207 213 217 217 211 189 169 157 154 153 151 149 149 155 159 157 143 127 112 67 351 85 127 137 147 99 71 58 24 41 57 59 13 350 325 314 312 321 334 345 351 352 348 341 326 316 308 301 294 279 278 13 42 29 21 13 6 6 2 356 355 10 26 31 25 15 5 352 342 337 335 336 337 342 348 354 358 0 1 360 358 356 356 357 359 2 4 4 4 3 2 1 360 359 360 360 0 1 1 360 358
199 203 208 214 217 213 198 179 166 158 155 153 152 154 159 166 165 159 147 135 123 85 18 25 76 128 148 137 118 92 56 43 47 42 17 346 326 319 322 335 346 353 353 350 344 333 317 310 301 294 281 277 23 52 44 31 22 15 12 6 360 357 6 32 45 47 43 31 20 7 353 345 343 342 342 345 348 350 352 353 353 351 349 349 350 352 355 358 360 0 0 360 359 358 358 358 358 358 359 359 359 358 356
198 201 206 212 212 203 183 168 161 156 154 153 153 157 162 163 153 140 137 133 124 104 45 27 36 81 124 126 123 109 81 34 20 24 20 352 337 333 338 350 356 355 348 346 337 324 310 305 304 305 315 28 51 49 36 26 21 16 10 359 354 360 24 41 51 60 60 50 38 24 11 356 351 349 349 350 351 352 353 350 347 344 342 342 344 346 350 354 356 357 356 356 355 355 355 355 355 355 356 357 357 356 354
198 200 202 206 201 187 168 161 157 154 151 151 153 156 158 145 123 109 110 118 119 112 74 33 28 48 98 116 126 129 123 119 10 12 25 8 355 350 354 4 2 353 342 342 334 321 311 310 319 339 17 46 53 48 29 23 17 10 352 344 345 360 28 44 58 69 71 62 52 36 30 20 2 356 355 356 356 356 355 350 346 341 338 337 339 342 346 350 352 353 352 352 352 352 352 352 352 352 353 354 355 354 352
198 197 197 197 188 174 167 162 157 152 151 150 151 151 147 136 123 113 100 87 104 113 111 62 29 34 69 106 128 141 151 160 155 108 59 29 14 8 11 9 360 350 346 343 336 329 325 332 350 13 34 48 52 50 31 25 18 4 340 347 351 3 31 40 49 54 57 52 41 34 35 32 21 7 360 359 360 359 355 349 344 340 337 336 337 339 342 346 349 349 348 347 347 348 349 349 349 349 349 351 352 351 350
194 190 189 188 180 172 167 162 156 152 152 151 150 149 147 147 145 141 128 91 83 96 114 109 64 40 46 79 105 128 152 156 144 120 88 56 34 25 22 5 350 345 348 346 344 346 355 5 18 31 43 48 48 42 30 21 16 9 4 3 3 11 31 32 33 33 31 27 22 23 31 28 21 10 360 3 4 360 350 345 342 341 340 340 339 338 339 343 344 344 343 342 343 344 345 345 345 345 346 347 349 349 347
188 185 186 183 176 169 163 161 158 155 155 155 156 158 161 167 167 164 156 132 108 98 108 118 109 78 48 62 67 77 123 143 130 114 92 66 44 34 26 356 336 331 344 348 352 1 16 18 24 32 40 42 39 32 21 9 6 12 20 16 17 23 33 30 25 20 12 8 14 22 29 28 20 10 355 358 360 354 343 338 340 343 346 346 343 341 340 341 341 340 338 337 337 339 341 342 342 342 342 344 345 345 345
187 185 184 176 169 164 161 164 163 161 163 165 169 174 179 179 178 174 163 145 132 121 107 112 115 110 85 44 24 18 27 52 117 114 95 56 31 18 11 353 340 334 335 350 357 6 22 23 25 28 32 33 30 24 14 2 5 16 25 28 31 33 33 32 24 15 2 7 19 29 33 30 21 10 356 349 342 335 332 332 340 346 351 351 349 346 344 343 341 338 334 331 332 334 336 338 338 339 339 341 342 342 342
187 182 174 165 162 161 164 170 171 171 173 177 182 185 183 175 169 160 135 124 122 120 97 83 94 108 119 126 335 342 354 342 339 92 83 59 36 8 351 355 350 343 334 342 352 4 16 21 24 25 24 24 22 16 6 2 9 20 25 35 39 38 33 32 23 8 357 15 30 37 38 33 24 10 354 342 334 330 332 335 341 347 351 351 350 348 347 345 341 337 332 328 327 329 332 333 334 335 336 338 339 339 339
183 175 167 162 162 165 168 175 178 179 182 185 182 174 162 153 144 130 111 104 104 104 95 62 53 77 126 163 203 308 340 326 356 59 65 62 66 54 352 348 347 344 336 331 334 352 13 19 19 16 11 10 9 6 2 3 13 24 28 37 42 41 30 23 8 354 356 20 32 38 38 32 23 10 357 346 342 341 340 342 343 344 346 345 346 347 347 345 341 335 330 327 325 325 327 329 330 331 332 334 336 337 336
181 174 167 166 168 172 173 177 180 182 183 176 154 127 124 128 127 123 118 122 120 115 115 96 47 26 69 135 163 281 329 323 17 74 76 67 87 121 145 27 2 356 345 334 333 342 14 12 6 357 351 349 354 359 359 2 16 30 29 34 37 33 13 359 344 340 350 18 27 30 29 23 14 360 350 349 350 350 348 346 343 338 336 335 337 337 339 335 332 330 329 326 324 323 324 324 325 326 328 331 332 333 333
183 176 169 169 172 176 174 177 180 180 175 161 139 120 124 131 134 135 137 143 143 138 131 131 119 53 34 67 70 16 351 349 26 91 116 120 113 102 133 82 46 14 352 345 339 338 355 354 346 341 348 345 346 348 352 359 16 29 27 28 25 11 345 336 329 328 340 11 21 20 17 12 4 356 351 352 352 350 346 344 339 333 329 326 325 324 325 323 324 326 328 327 326 324 323 322 322 322 324 326 328 329 330
183 177 172 172 174 174 168 176 181 181 171 161 154 150 150 151 153 155 155 153 149 143 135 137 135 123 45 30 24 17 15 24 31 65 121 133 122 71 38 55 60 41 342 15 342 327 326 334 331 324 326 340 338 334 342 359 12 20 20 23 10 342 322 321 321 324 341 10 13 6 1 358 354 352 353 354 349 344 339 336 333 328 324 320 319 318 317 317 321 324 328 328 327 325 323 320 319 319 320 322 324 325 326
182 179 174 174 172 169 167 178 182 183 178 172 167 164 163 167 168 169 168 168 164 157 147 143 136 129 119 56 349 343 358 26 33 45 95 128 125 108 66 75 103 170 200 114 85 308 287 305 308 306 300 323 331 332 343 2 357 350 4 13 356 335 327 327 329 335 2 10 360 347 349 345 343 347 356 349 340 332 329 327 324 321 317 315 311 309 306 307 316 323 326 326 326 325 322 319 317 316 317 319 320 321 322
182 180 176 176 173 171 173 177 180 182 186 177 170 167 169 177 181 183 181 182 176 167 156 153 142 136 138 161 199 244 324 357 23 50 62 100 126 129 132 125 105 52 12 51 101 218 252 289 302 298 286 328 344 347 338 348 346 342 350 5 358 346 341 338 339 341 345 324 320 326 334 331 336 341 345 335 325 320 318 318 317 313 309 306 304 302 302 309 316 320 320 319 319 319 319 315 314 313 313 315 317 319 321
180 180 180 177 174 172 173 176 177 180 184 180 176 176 180 186 188 186 183 180 174 167 161 162 163 159 150 155 162 170 296 340 356 68 81 51 52 111 140 139 134 114 48 333 243 236 244 276 320 320 288 321 348 344 299 323 332 332 328 341 348 347 338 333 331 324 314 312 314 315 306 308 321 329 323 318 314 310 307 309 308 305 303 300 300 300 301 308 309 308 306 305 308 311 312 311 311 311 311 314 316 319 321
178 179 182 178 174 171 168 173 177 179 182 185 186 186 186 184 181 179 178 178 179 179 176 170 171 169 152 142 141 142 140 74 10 53 79 68 36 35 112 149 159 164 163 182 202 223 251 165 64 358 294 308 297 253 272 306 314 312 310 311 317 325 323 315 309 305 301 306 306 301 290 274 274 287 291 300 303 303 301 301 298 295 295 294 294 293 294 294 291 290 290 290 292 297 304 308 309 311 312 316 318 321 323
179 179 182 178 174 171 170 175 177 180 184 190 191 187 181 175 174 177 183 186 191 192 184 170 168 167 157 133 124 127 149 183 210 315 24 53 51 47 54 131 162 156 154 162 162 159 156 95 111 169 293 319 314 298 297 319 319 318 315 307 305 308 304 294 288 282 281 281 285 290 289 267 247 251 280 291 294 296 298 295 291 289 289 288 288 289 290 293 296 296 292 291 292 299 309 314 315 315 317 320 322 324 325
178 177 179 177 175 174 173 176 178 180 184 188 187 182 177 181 185 188 189 192 192 188 180 177 175 170 161 142 129 133 166 188 193 191 39 19 22 27 46 44 40 42 51 76 123 140 142 143 161 173 127 330 317 317 333 333 321 310 311 309 305 296 280 266 260 260 263 265 278 297 313 296 264 238 277 290 296 299 299 292 287 284 285 286 288 292 296 306 314 318 316 316 318 321 326 327 326 326 325 326 326 326 326
177 175 177 176 175 175 174 175 177 180 183 184 184 184 188 193 195 193 188 190 184 180 178 182 178 165 155 154 152 158 179 189 188 169 137 133 329 324 43 69 64 62 64 51 52 89 129 149 156 154 135 159 249 301 316 314 310 300 297 302 304 298 271 251 245 248 259 266 278 301 315 307 302 295 293 299 301 304 303 298 291 285 285 288 292 295 300 311 317 319 319 319 322 331 346 343 340 336 332 330 328 326 325
178 175 177 178 179 179 176 175 178 183 184 185 187 192 198 199 196 190 181 179 174 172 177 178 170 158 157 164 168 170 172 173 175 173 157 157 167 198 86 71 72 72 69 50 44 52 80 104 131 142 146 147 153 204 287 304 316 324 316 306 305 304 291 272 260 256 261 266 266 265 276 289 295 298 298 298 299 301 306 306 299 293 291 293 295 296 300 301 301 301 302 299 314 337 3 357 349 342 336 332 328 325 324